This demonstration page uses our WeatherBlox Daily Observations layout. Learn more.

Left ArrowRight Arrow

Hourly Observations for June 30, 2017

Temp ( °F °C ) Dew Point ( °F °C ) Humidity (%) Winds ( mph kmh ) Pressure ( in mb ) Visibility ( mi km ) Precip ( " mm )
12:52 am 00:52 Clear 73 22.8 69 20.6 87 87 SSE 13 20 29.81 1010 10 16 0.00 0.00
1:52 am 01:52 Clear 73 22.8 70 21.1 90 90 SSE 9 15 29.81 1009 10 16 0.00 0.00
2:52 am 02:52 Clear 73 22.8 70 21.1 90 90 SSE 9 15 29.83 1010 10 16 0.00 0.00
3:52 am 03:52 Mostly Clear 73 22.8 70 21.1 90 90 SSE 10 17 29.84 1011 10 16 0.00 0.00
4:52 am 04:52 Cloudy 73 22.8 71 21.7 94 94 S 12 19 29.86 1011 10 16 0.00 0.00
5:12 am 05:12 Mostly Cloudy with Nearby Thunderstorms 73 22.8 71 21.7 94 94 S 13 20 29.85 1011 10 16 0.00 0.00
5:22 am 05:22 Cloudy with Strong Thunderstorms 70 21.1 67 19.4 90 90 NW 24 39 29.94 1014 3 5 0.00 0.03
5:24 am 05:24 Cloudy with Strong Thunderstorms 69 20.6 67 19.4 93 93 NW 26 43 29.94 1014 2 3 0.02 0.51
5:26 am 05:26 Cloudy with Strong Thunderstorms 68 20 66 18.9 93 93 NNW 24 39 29.94 1014 2 2 0.03 0.76
5:32 am 05:32 Cloudy with Strong Thunderstorms 67 19.4 66 18.9 97 97 NNW 15 24 29.94 1014 1 2 0.19 4.83
5:41 am 05:41 Cloudy with Strong Thunderstorms 67 19.4 66 18.9 97 97 NNW 15 24 29.94 1014 2 3 0.37 9.40
5:49 am 05:49 Cloudy with Thunderstorms 66 19 66 19 100 100 NNW 17 28 29.94 1014 5 8 0.40 10.16
5:50 am 05:50 Cloudy with Thunderstorms 67 19.4 66 18.9 97 97 NNW 16 26 29.94 1014 6 10 0.40 10.16
5:56 am 05:56 Cloudy with Nearby Thunderstorms 67 19.4 66 18.9 97 97 NNW 17 28 29.97 1015 10 16 0.01 0.25
6:09 am 06:09 Cloudy with Nearby Thunderstorms 67 19.4 66 18.9 97 97 NNW 12 19 29.97 1015 8 13 0.02 0.51
6:23 am 06:23 Cloudy with Light Rain 67 19.4 66 18.9 97 97 N 10 17 30.00 1016 9 14 0.05 1.27
6:34 am 06:34 Cloudy with Nearby Thunderstorms 67 19.4 66 18.9 97 97 N 10 17 30.03 1017 9 14 0.06 1.52
6:49 am 06:49 Mostly Cloudy with Rain 67 19.4 65 18.3 93 93 N 14 22 30.00 1016 6 10 0.11 2.79
7:13 am 07:13 Cloudy with Light Rain 66 18.9 65 18.3 96 96 NNE 12 19 30.00 1016 9 14 0.06 1.52
7:52 am 07:52 Cloudy with Light Rain 66 18.9 65 18.3 96 96 NE 6 9 29.95 1014 8 13 0.15 3.81
8:52 am 08:52 Sunny 68 20 66 18.9 93 93 SE 15 24 29.90 1012 10 16 0.00 0.03
9:52 am 09:52 Sunny 67 19.4 65 18.3 93 93 SSE 12 19 29.92 1013 10 16 0.00 0.00
10:52 am 10:52 Sunny 68 20 65 18.3 90 90 S 13 20 29.87 1011 10 16 0.00 0.00
11:52 am 11:52 Sunny 72 22.2 66 18.9 82 82 SE 8 13 29.87 1012 10 16 0.00 0.00
12:52 pm 12:52 Sunny 77 25 68 20 74 74 SW 8 13 29.88 1012 10 16 0.00 0.00
1:52 pm 13:52 Sunny 81 27.2 69 20.6 67 67 SW 10 17 29.88 1012 10 16 0.00 0.00
2:52 pm 14:52 Sunny 84 28.9 69 20.6 61 61 W 13 20 29.88 1012 10 16 0.00 0.00
3:52 pm 15:52 Sunny 84 28.9 71 21.7 65 65 NW 9 15 29.89 1012 10 16 0.00 0.00
4:52 pm 16:52 Partly Cloudy 83 28.3 70 21.1 65 65 W 10 17 29.91 1013 10 16 0.00 0.00
5:52 pm 17:52 Mostly Sunny 81 27.2 69 20.6 67 67 W 9 15 29.93 1014 10 16 0.00 0.00
6:52 pm 18:52 Sunny 82 27.8 69 20.6 65 65 W 13 20 29.92 1013 10 16 0.00 0.00
7:52 pm 19:52 Partly Cloudy 78 25.6 71 21.7 79 79 NNW 5 7 29.92 1013 10 16 0.00 0.00
8:52 pm 20:52 Clear 76 24.4 69 20.6 79 79 NNW 6 9 29.92 1013 10 16 0.00 0.00
9:52 pm 21:52 Clear 76 24.4 70 21.1 82 82 E 5 7 29.92 1013 10 16 0.00 0.00
10:52 pm 22:52 Partly Cloudy 75 23.9 70 21.1 84 84 Calm 29.98 1015 10 16 0.00 0.00
11:52 pm 23:52 Mostly Cloudy 74 23.3 71 21.7 91 91 Calm 29.99 1016 10 16 0.00 0.00

Powered by AerisWeather